Regional Weather Roundup
Issued by NWS

Home | Current Version | Previous Version | Text Only | Print | Product List | Glossary Off
Versions: 1 2 3 4 5 6 7 8 9 10 11 12 13 14 15 16 17 18 19 20 21 22 23 24 25 26 27 28 29 30 31 32 33 34 35 36 37 38 39 40 41 42 43 44 45 46 47 48 49 50

795
ASUS43 KOAX 130710
RWRNE

WEATHER ROUNDUP FOR NEBRASKA
NATIONAL WEATHER SERVICE OMAHA NE
100 AM CST SAT FEB 13 2016

NOTES: SATELLITE DATA IS BEING USED TO AUGMENT CLOUD COVER ABOVE
       12000 FEET.
       "FAIR" INDICATES FEW OR NO CLOUDS BELOW 12,000 FEET WITH NO
       SIGNIFICANT WEATHER AND/OR OBSTRUCTIONS TO VISIBILITY.

  * THESE STATIONS DO NOT REPORT WEATHER SUCH AS RAIN...SNOW OR FOG.

NEZ001>004-019>022-054>056-130800-
NEBRASKA PANHANDLE

CITY           SKY/WX    TMP DP  RH WIND       PRES   REMARKS
SCOTTSBLUFF    CLOUDY    33  30  88 SE10      30.22F WCI  25
ALLIANCE       CLOUDY    30  29  96 S16       30.23F FOG     WCI  19
CHADRON        CLOUDY    34  29  82 S12       30.20F WCI  25
KIMBALL        FOG       30  30 100 S13       30.21F VSB 1/2 WCI  20
SIDNEY         CLOUDY    29  29 100 S20       30.25F FOG     WCI  16
$$

NEZ057>060-069>072-079>082-130800-
SOUTHWEST NEBRASKA

CITY           SKY/WX    TMP DP  RH WIND       PRES   REMARKS
NORTH PLATTE   CLOUDY    24  20  84 SE10      30.39F WCI  14
IMPERIAL       CLOUDY    29  27  92 S15       30.35F WCI  18
LEXINGTON      CLOUDY    22  18  82 SE9       30.46F WCI  12
MCCOOK         FOG       26  25  96 SE15      30.42F VSB 1/4 WCI  14
OGALLALA       CLOUDY    29  28  93 SE14      30.33F FOG     WCI  19
$$

NEZ005>010-023>029-035>040-094-130800-
NORTH CENTRAL NEBRASKA

CITY           SKY/WX    TMP DP  RH WIND       PRES   REMARKS
VALENTINE      CLOUDY    22  15  75 SE15      30.37F WCI   9
AINSWORTH      CLOUDY    20  14  78 SE12      30.41F WCI   8
BROKEN BOW     CLOUDY    20  16  84 SE10      30.44F WCI   9
O`NEILL        CLOUDY    15   8  73 SE6       30.51S WCI   6
ORD            CLOUDY    17  12  80 SE9       30.49F WCI   6
THEDFORD       CLOUDY    26  21  84 S12       30.38F WCI  15
$$

NEZ041-046>049-061>064-073>077-083>087-130800-
SOUTH CENTRAL NEBRASKA

CITY           SKY/WX    TMP DP  RH WIND       PRES   REMARKS
GRAND ISLAND   CLOUDY    17   9  70 E9        30.54F WCI   6
AURORA         CLOUDY    17   9  72 E7        30.54F WCI   7
HASTINGS       CLOUDY    18  11  74 E7        30.51F WCI   9
HEBRON         CLOUDY    19  10  67 E7        30.58S WCI  10
HOLDREGE       CLOUDY    19  15  84 SE8       30.48S WCI   9
KEARNEY *      CLOUDY    19  12  73 E10       30.49F WCI   8
YORK           CLOUDY    16   9  73 E7        30.56F WCI   6
$$

NEZ011>018-030>034-042>045-130800-
NORTHEAST NEBRASKA

CITY           SKY/WX    TMP DP  RH WIND       PRES   REMARKS
NORFOLK        CLOUDY    13   4  67 E5        30.56F WCI   5
ALBION         CLOUDY    15   7  69 E6        30.54F WCI   6
BLAIR          CLOUDY    11   2  65 N9        30.59F WCI  -1
COLUMBUS *     CLOUDY    14   0  52 E7        30.59F WCI   4
FREMONT        CLOUDY    11   1  65 NE5       30.62S WCI   3
TEKAMAH        CLOUDY     8  -3  61 N13       30.65F WCI  -8
WAYNE          CLOUDY     9   1  68 E6        30.60F WCI  -1
$$

NEZ050>053-065>068-078-088>093-130800-
SOUTHEAST NEBRASKA

CITY           SKY/WX    TMP DP  RH WIND       PRES   REMARKS
LINCOLN        CLOUDY    15   4  61 NE9       30.62F WCI   3
OMAHA EPPLEY   CLOUDY    12   0  58 N10       30.65F WCI  -1
BEATRICE       CLOUDY    17   9  70 NE6       30.60R WCI   8
FALLS CITY     CLOUDY    16   2  54 N8        30.63R WCI   5
NEBRASKA CITY  MOCLDY    14   0  54 NE8       30.62R WCI   3
PLATTSMOUTH    MOCLDY    13   4  66 NE8       30.61S WCI   2
$$

NEZ044-045-051>053-067-130800-
OMAHA AREA

CITY           SKY/WX    TMP DP  RH WIND       PRES   REMARKS
OMAHA EPPLEY   CLOUDY    12   0  58 N10       30.65F WCI  -1
BLAIR          CLOUDY    11   2  65 N9        30.59F WCI  -1
FREMONT        CLOUDY    11   1  65 NE5       30.62S WCI   3
MILLARD        CLOUDY    14   1  55 CALM      30.63S
OFFUTT AFB     CLOUDY    13   0  55 N7        30.63S WCI   3
PLATTSMOUTH    MOCLDY    13   4  66 NE8       30.61S WCI   2
WAHOO          CLOUDY    13   5  70 NE7       30.61F WCI   3
$$




USA.gov is the U.S. government's official web portal to all federal, state and local government web resources and services.